Voltar ao catálogo

STARLINK-35266

AtivoComunicaçõesSSO
NORAD 65804·PAYLOAD·🇺🇸 United States

Lançado Sep 26, 2025 de Vandenberg Space Force Base

Loading…

Próximas Passagens (próximas 24 horas)

TLE

AtualizadoSource: CelesTrak SupGP

Época: Sep 15, 2026, 03:46 UTC

1 65804C 25218P   26258.15743056 -.00056154  00000+0 -17428-2 0  2589
2 65804  97.2841 115.5633 0001873  93.7881 206.7995 15.33474024    17

Acompanhe STARLINK-35266 em tempo real com AllMySat

Download on the App Store